When you browse on this site, cookies collect data to enhance your experience and personalize the content and advertising you see.
Visit our Privacy Policy to learn more. By continuing to use the site, you agree to this use of cookies and data.
  • In Hungary
  • List of Countries
  • For 7 days
  • Water Temperature
  • Weather Map
  • News
  • Weather Widgets
  • user-avatar
    Login

    Hourly Weather Sumperk

    Today, 22 February, Saturday

    Time Temperature Precipitation Wind Pressure Humidity
    00:00 +2°C° 0 mm 1 mps 740 mmHg 86%
    01:00 +1°C° 0 mm 1 mps 741 mmHg 86%
    02:00 +1°C° 0 mm 1 mps 740 mmHg 87%
    03:00 -1°C° 0 mm 2 mps 740 mmHg 87%
    04:00 -1°C° 0 mm 2 mps 739 mmHg 88%
    05:00 +1°C° 0 mm 2 mps 739 mmHg 89%
    06:00 +1°C° 0 mm 2 mps 739 mmHg 90%
    07:00 0°C° 0 mm 3 mps 739 mmHg 90%
    08:00 +1°C° 0 mm 3 mps 739 mmHg 84%
    09:00 +1°C° 0 mm 4 mps 739 mmHg 77%
    10:00 +3°C° 0 mm 5 mps 738 mmHg 70%
    11:00 +5°C° 0 mm 5 mps 738 mmHg 67%
    12:00 +5°C° 0 mm 5 mps 737 mmHg 63%
    13:00 +5°C° 0 mm 6 mps 737 mmHg 60%
    14:00 +6°C° 0 mm 5 mps 736 mmHg 61%
    15:00 +6°C° 0 mm 5 mps 735 mmHg 62%
    16:00 +6°C° 0 mm 5 mps 735 mmHg 63%
    17:00 +6°C° 0 mm 4 mps 735 mmHg 66%
    18:00 +5°C° 0 mm 4 mps 735 mmHg 69%
    19:00 +4°C° 0 mm 4 mps 735 mmHg 72%
    20:00 +4°C° 0 mm 4 mps 734 mmHg 71%
    21:00 +5°C° 0 mm 5 mps 734 mmHg 70%
    22:00 +5°C° 0 mm 5 mps 734 mmHg 69%
    23:00 +4°C° 0.2 mm 6 mps 734 mmHg 75%

    Tomorrow, 23 February, Sunday

    Time Temperature Precipitation Wind Pressure Humidity
    00:00 +4°C° 0.2 mm 7 mps 734 mmHg 81%
    01:00 +4°C° 0.2 mm 7 mps 734 mmHg 87%
    02:00 +5°C° 0.2 mm 7 mps 734 mmHg 87%
    03:00 +5°C° 0.2 mm 7 mps 734 mmHg 86%
    04:00 +5°C° 0.2 mm 7 mps 733 mmHg 85%
    05:00 +5°C° 0.5 mm 6 mps 733 mmHg 88%
    06:00 +5°C° 0.5 mm 4 mps 734 mmHg 90%
    07:00 +5°C° 0.5 mm 3 mps 734 mmHg 93%
    08:00 +5°C° 0.5 mm 3 mps 733 mmHg 92%
    09:00 +5°C° 0.5 mm 4 mps 733 mmHg 91%
    10:00 +5°C° 0.5 mm 4 mps 733 mmHg 90%
    11:00 +5°C° 0.2 mm 4 mps 733 mmHg 90%
    12:00 +5°C° 0.2 mm 4 mps 732 mmHg 90%
    13:00 +5°C° 0.2 mm 5 mps 732 mmHg 91%
    14:00 +6°C° 0.7 mm 5 mps 730 mmHg 90%
    15:00 +7°C° 0.7 mm 6 mps 728 mmHg 90%
    16:00 +6°C° 0.7 mm 7 mps 726 mmHg 90%
    17:00 +7°C° 0.8 mm 8 mps 725 mmHg 86%
    18:00 +8°C° 0.8 mm 10 mps 724 mmHg 82%
    19:00 +9°C° 0.8 mm 12 mps 723 mmHg 79%
    20:00 +9°C° 1.2 mm 12 mps 723 mmHg 80%
    21:00 +8°C° 1.2 mm 13 mps 723 mmHg 81%
    22:00 +8°C° 1.2 mm 14 mps 722 mmHg 83%
    23:00 +5°C° 0.3 mm 13 mps 725 mmHg 81%

    Day after tomorrow, 24 February, Monday

    Time Temperature Precipitation Wind Pressure Humidity
    00:00 +3°C° 0.3 mm 11 mps 727 mmHg 79%
    01:00 0°C° 0.3 mm 10 mps 729 mmHg 77%
    02:00 0°C° 0.1 mm 9 mps 730 mmHg 78%
    03:00 -1°C° 0.1 mm 9 mps 731 mmHg 79%
    04:00 -1°C° 0.1 mm 9 mps 732 mmHg 80%
    05:00 -2°C° 0 mm 8 mps 733 mmHg 80%
    06:00 -2°C° 0 mm 7 mps 734 mmHg 81%
    07:00 -1°C° 0 mm 5 mps 735 mmHg 81%
    08:00 0°C° 0 mm 5 mps 736 mmHg 78%
    09:00 +1°C° 0 mm 5 mps 736 mmHg 75%
    10:00 +1°C° 0 mm 5 mps 736 mmHg 72%
    11:00 +2°C° 0 mm 5 mps 736 mmHg 71%
    12:00 +2°C° 0 mm 5 mps 736 mmHg 69%
    13:00 +3°C° 0 mm 5 mps 736 mmHg 68%
    14:00 +4°C° 0 mm 4 mps 736 mmHg 68%
    15:00 +4°C° 0 mm 4 mps 735 mmHg 68%
    16:00 +4°C° 0 mm 3 mps 735 mmHg 68%
    17:00 +3°C° 0 mm 3 mps 734 mmHg 71%
    18:00 +4°C° 0 mm 2 mps 734 mmHg 74%
    19:00 +3°C° 0 mm 2 mps 733 mmHg 77%
    20:00 +3°C° 0 mm 2 mps 733 mmHg 76%
    21:00 +3°C° 0 mm 3 mps 732 mmHg 76%
    22:00 +3°C° 0 mm 3 mps 731 mmHg 76%
    23:00 +3°C° 0 mm 3 mps 730 mmHg 78%

    25 February, Tuesday

    Time Temperature Precipitation Wind Pressure Humidity
    00:00 +3°C° 0 mm 4 mps 730 mmHg 80%
    01:00 +3°C° 0 mm 4 mps 729 mmHg 82%
    02:00 +4°C° 0 mm 4 mps 728 mmHg 84%
    03:00 +4°C° 0 mm 4 mps 728 mmHg 86%
    04:00 +5°C° 0 mm 5 mps 727 mmHg 89%
    05:00 +4°C° 0 mm 4 mps 727 mmHg 90%
    06:00 +4°C° 0 mm 4 mps 727 mmHg 92%
    07:00 +4°C° 0 mm 4 mps 726 mmHg 93%
    08:00 +5°C° 0.2 mm 4 mps 726 mmHg 91%
    09:00 +5°C° 0.2 mm 4 mps 725 mmHg 89%
    10:00 +6°C° 0.2 mm 4 mps 725 mmHg 87%
    11:00 +6°C° 0.6 mm 5 mps 725 mmHg 85%
    12:00 +7°C° 0.6 mm 5 mps 724 mmHg 82%
    13:00 +7°C° 0.6 mm 5 mps 724 mmHg 80%
    14:00 +7°C° 0.1 mm 6 mps 723 mmHg 80%
    15:00 +7°C° 0.1 mm 6 mps 723 mmHg 80%
    16:00 +6°C° 0.1 mm 7 mps 722 mmHg 80%
    17:00 +7°C° 0.3 mm 6 mps 722 mmHg 82%
    18:00 +5°C° 0.3 mm 6 mps 722 mmHg 84%
    19:00 +4°C° 0.3 mm 6 mps 722 mmHg 85%
    20:00 +5°C° 0 mm 5 mps 722 mmHg 87%
    21:00 +4°C° 0 mm 4 mps 722 mmHg 88%
    22:00 +3°C° 0 mm 3 mps 722 mmHg 89%
    23:00 +3°C° 0 mm 3 mps 722 mmHg 90%

    26 February, Wednesday

    Time Temperature Precipitation Wind Pressure Humidity
    00:00 +2°C° 0 mm 3 mps 721 mmHg 90%
    01:00 +2°C° 0 mm 3 mps 721 mmHg 90%
    02:00 +2°C° 0 mm 3 mps 721 mmHg 90%
    03:00 +1°C° 0 mm 3 mps 720 mmHg 90%
    04:00 +1°C° 0 mm 3 mps 720 mmHg 89%
    05:00 0°C° 0 mm 4 mps 719 mmHg 89%
    06:00 0°C° 0 mm 4 mps 719 mmHg 88%
    07:00 -1°C° 0 mm 4 mps 718 mmHg 87%
    08:00 0°C° 0.3 mm 5 mps 718 mmHg 84%
    09:00 +1°C° 0.3 mm 5 mps 718 mmHg 82%
    10:00 +2°C° 0.3 mm 6 mps 718 mmHg 80%
    11:00 +2°C° 0.1 mm 7 mps 718 mmHg 68%
    12:00 +2°C° 0.1 mm 7 mps 717 mmHg 57%
    13:00 +2°C° 0.1 mm 8 mps 717 mmHg 46%
    14:00 +3°C° 0 mm 7 mps 717 mmHg 48%
    15:00 +2°C° 0 mm 6 mps 717 mmHg 49%
    16:00 +2°C° 0 mm 5 mps 718 mmHg 50%
    17:00 +1°C° 0 mm 4 mps 718 mmHg 55%
    18:00 0°C° 0 mm 4 mps 719 mmHg 60%
    19:00 0°C° 0 mm 3 mps 719 mmHg 64%
    20:00 -1°C° 0 mm 4 mps 720 mmHg 72%
    21:00 -1°C° 0 mm 5 mps 720 mmHg 79%
    22:00 -3°C° 0 mm 6 mps 721 mmHg 86%
    23:00 -3°C° 0 mm 6 mps 721 mmHg 85%

    27 February, Thursday

    Time Temperature Precipitation Wind Pressure Humidity
    00:00 -3°C° 0 mm 6 mps 721 mmHg 84%
    01:00 -2°C° 0 mm 6 mps 722 mmHg 84%
    02:00 -2°C° 0 mm 6 mps 722 mmHg 84%
    03:00 -2°C° 0 mm 6 mps 722 mmHg 83%
    04:00 -2°C° 0 mm 6 mps 722 mmHg 83%
    05:00 -2°C° 0 mm 7 mps 723 mmHg 84%
    06:00 -2°C° 0 mm 7 mps 723 mmHg 85%
    07:00 -2°C° 0 mm 7 mps 724 mmHg 86%
    08:00 -2°C° 0.1 mm 7 mps 724 mmHg 83%
    09:00 -1°C° 0.1 mm 8 mps 725 mmHg 81%
    10:00 -1°C° 0.1 mm 8 mps 725 mmHg 78%
    11:00 0°C° 0.1 mm 8 mps 726 mmHg 76%
    12:00 0°C° 0.1 mm 9 mps 726 mmHg 73%
    13:00 0°C° 0.1 mm 9 mps 726 mmHg 70%
    14:00 0°C° 0.1 mm 8 mps 726 mmHg 69%
    15:00 +1°C° 0.1 mm 8 mps 727 mmHg 67%
    16:00 +2°C° 0.1 mm 7 mps 727 mmHg 66%
    17:00 -1°C° 0 mm 6 mps 728 mmHg 72%
    18:00 -1°C° 0 mm 4 mps 728 mmHg 79%
    19:00 -1°C° 0 mm 3 mps 728 mmHg 85%
    20:00 -1°C° 0 mm 3 mps 729 mmHg 86%
    21:00 -1°C° 0 mm 2 mps 729 mmHg 87%
    22:00 -1°C° 0 mm 2 mps 729 mmHg 88%
    23:00 -1°C° 0 mm 2 mps 729 mmHg 88%
    Show more